Location: ??????????
(56.0000°N, 37.8000°E)
Time: 04:15:58
(UTC+00:00)

Daily predictions for brighter satellites

Satellite Brightness Start Highest point End
(mag) Time Altitude Azimuth Time Altitude Azimuth Time Altitude Azimuth
ADEOS II 3.6 00:04:51 10° NNE 00:07:34 31° NNE 00:07:34 31° NNE
Cosmos 2219 Rocket 4.2 00:15:18 19° N 00:15:19 19° N 00:19:16 10° NE
ARIANE 5 R/B 3.9 00:12:14 10° NNE 00:15:30 36° NE 00:15:30 36° NE
Resurs 1-4 Rocket 3.9 00:16:43 10° N 00:18:52 24° N 00:18:52 24° N
Cosmos 2322 Rocket 4.4 00:28:58 15° NNW 00:31:33 20° NNE 00:35:43 10° ENE
CZ-2D R/B 3.9 00:28:51 10° N 00:30:54 22° N 00:30:54 22° N
NOSS 3-2 (A) 4.4 00:37:05 35° SE 00:38:01 37° ESE 00:44:00 10° ENE
CZ-2C R/B 4.3 00:40:39 10° NNE 00:44:59 28° E 00:48:34 13° SE
Cosmos 2344 4.2 00:46:50 34° S 00:49:37 48° ESE 00:57:24 10° NE
Cosmos 1302 Rocket 4.3 00:51:18 64° ENE 00:51:18 64° ENE 00:56:34 10° SE
Cosmos 2369 4.4 00:48:58 28° NNW 00:51:40 50° NE 00:57:11 10° ESE
Cosmos 1603 4.3 00:53:21 45° N 00:53:21 45° N 00:57:48 10° NNE
Spot 4 Rocket 4.3 00:47:52 10° NNE 00:52:51 64° E 00:52:51 64° E
USA 234 3.1 00:46:46 10° ENE 00:53:22 79° SSE 00:53:54 73° SSW
Cosmos 1048 Rocket 4.4 00:54:33 58° ESE 00:54:42 59° ESE 00:59:59 10° NNE
IDEFIX/ARIANE 42P 2.7 00:50:20 10° NNE 00:54:58 68° NE 00:54:58 68° NE
GP-B 4.1 00:55:47 43° E 00:56:07 44° E 01:00:22 10° N
Lacrosse 4 Rocket 4.0 00:55:18 13° SE 00:56:41 15° ESE 00:58:58 10° ENE
CZ-3B R/B 3.4 00:57:50 63° SW 00:58:28 66° SSW 01:18:57 10° ESE
Meteor 1-16 Rocket 4.4 00:53:17 10° N 00:58:37 64° ENE 01:03:52 10° SSE
Cosmos 1025 Rocket 4.2 01:00:30 38° ESE 01:01:08 40° E 01:05:16 10° NNE
Cosmos 2279 Rocket 4.0 00:56:47 10° N 01:03:02 78° ENE 01:09:15 10° SSE
Geosat 4.0 01:00:41 10° SE 01:05:32 78° E 01:05:32 78° E
SL-16 R/B 4.1 01:02:51 13° NNW 01:06:54 26° NNE 01:11:38 10° E
Cosmos 1634 Rocket 3.9 01:01:12 10° NNW 01:07:01 67° WNW 01:07:01 67° WNW
Cosmos 1656 3.6 01:08:21 77° S 01:08:21 77° S 01:13:40 10° SSE
ADEOS Rocket 2.7 01:04:03 10° SSE 01:09:32 83° ENE 01:15:15 10° NNW
Cosmos 2333 Rocket 4.3 01:08:54 14° NNW 01:11:22 18° N 01:15:17 10° NE
COSMOS 2441 4.4 01:07:54 10° NNE 01:12:48 74° ESE 01:12:59 73° SE
Meteor 1-21 4.0 01:21:49 72° WSW 01:22:14 76° WNW 01:27:53 10° NNE
Cosmos 2237 Rocket 4.0 01:21:23 17° NNW 01:22:51 18° N 01:26:43 10° NE
Cosmos 1697 Rocket 2.7 01:22:07 30° NNW 01:25:05 82° NE 01:30:46 10° SE
Cosmos 1707 4.1 01:28:14 31° N 01:28:14 31° N 01:30:20 10° N
Cosmos 1992 Rocket 4.4 01:27:16 10° NNW 01:32:25 61° ENE 01:37:35 10° SE
Cosmos 2360 Rocket 4.1 01:29:50 10° NNW 01:34:12 23° NNE 01:38:38 10° ENE
Cosmos 220 Rocket 4.4 01:33:09 28° NNW 01:35:22 64° ENE 01:39:47 10° SE
Cosmos 1943 3.9 01:36:03 36° NW 01:36:16 36° NW 01:41:31 10° NNE
Cosmos 1536 Rocket 4.0 01:34:42 25° S 01:37:10 63° E 01:41:38 10° NNE
NOSS 3-2 (C) 4.1 01:34:17 25° S 01:37:35 51° SE 01:44:04 10° NE
Cosmos 468 4.4 01:38:35 60° WSW 01:39:25 72° WNW 01:44:48 10° NNE
MSX 3.7 01:36:12 10° NNE 01:41:55 69° WNW 01:43:48 43° SW
Intercosmos 24 4.5 01:40:22 10° N 01:44:48 56° ENE 01:48:23 10° SSE
Cosmos 1980 Rocket 2.4 01:41:58 14° NNW 01:46:50 70° NE 01:52:25 10° SE
SL-16 R/B 3.8 01:46:11 19° NW 01:47:36 20° NNW 01:51:46 10° NNE
Cosmos 44 Rocket 4.1 01:50:27 35° SSW 01:50:27 35° SSW 01:54:09 10° SSE
ADEOS II 3.4 01:45:11 10° N 01:48:31 24° NW 01:48:31 24° NW
CENTAUR R/B 3.0 01:48:26 22° SSW 01:52:35 61° SE 01:59:49 10° NE
Cosmos 1400 Rocket 4.0 01:50:12 10° N 01:54:03 43° ENE 01:57:48 10° SE
Cosmos 1867 4.2 01:54:23 36° WNW 01:55:42 42° NNW 02:00:55 10° NE
ARIANE 5 R/B 3.1 01:51:36 10° N 01:55:50 35° NW 01:55:50 35° NW
CZ-4B R/B 1.3 01:53:34 10° SSE 01:57:02 89° ENE 01:57:10 83° N
PSLV R/B 3.4 01:52:46 10° NNE 01:57:04 88° WNW 01:59:15 29° SSW
Cosmos 2360 4.1 01:52:47 17° NW 01:57:13 79° WSW 02:02:54 10° SSE
Tsikada Rocket 4.4 01:58:07 37° W 01:58:56 39° WNW 02:04:45 10° N
Resurs 1-4 Rocket 4.1 01:58:01 10° NNW 01:59:56 13° NW 01:59:56 13° NW
Cosmos 2219 Rocket 4.2 01:57:15 10° NNW 02:01:25 20° NNE 02:05:35 10° ENE
SKYMED 2 4.1 02:02:05 10° SSE 02:06:22 61° ENE 02:10:40 10° N
Cosmos 967 Rocket 4.4 02:05:11 23° NW 02:09:10 64° SW 02:15:20 10° SSE
Cosmos 1975 Rocket 4.3 02:10:49 24° NW 02:10:49 24° NW 02:13:27 10° N
CZ-2D R/B 4.2 02:10:53 10° NNW 02:12:13 11° NW 02:12:13 11° NW
Cosmos 2278 3.6 02:07:24 11° NW 02:12:59 83° WSW 02:18:39 10° SSE
ERS-2 3.8 02:11:38 10° S 02:12:56 20° SSW 02:12:56 20° SSW
ALOS 2.6 02:12:22 10° NNE 02:17:03 67° ESE 02:21:42 10° S
Cosmos 2322 Rocket 3.3 02:11:43 10° NNW 02:17:08 42° NE 02:22:31 10° ESE
Aureole 3 4.0 02:14:11 10° N 02:17:50 58° ENE 02:22:22 10° SSE
KORONAS-FOTON 3.7 02:16:32 23° SSW 02:18:51 68° WNW 02:22:45 10° N
Nadezhda 4 Rocket 3.9 02:14:54 10° S 02:21:01 88° ESE 02:27:14 10° NNE
SAR-Lupe-4 3.4 02:18:06 10° S 02:21:40 69° WSW 02:25:17 10° NNW
CZ-2C R/B 2.5 02:18:35 10° N 02:23:34 59° WNW 02:27:56 13° SW
SL-14 R/B 3.9 02:20:11 10° S 02:24:07 60° E 02:28:07 10° NNE
CZ-2C R/B 3.8 02:20:37 10° N 02:23:59 30° WNW 02:23:59 30° WNW
USA 238 DEB 3.6 02:19:35 22° SW 02:24:12 84° NW 02:31:18 10° NE
USA 238 3.7 02:19:39 22° SW 02:24:18 84° NW 02:31:24 10° NE
ADEOS 3.7 02:19:29 10° NNE 02:24:45 79° ESE 02:29:59 10° SSW
Cosmos 1726 Rocket 3.5 02:23:01 10° NNW 02:27:30 83° W 02:31:58 10° S
PAYLOAD A 4.1 02:22:57 10° N 02:27:48 51° WNW 02:32:12 13° SW
NOSS 3-2 (A) 3.5 02:24:29 24° WSW 02:28:24 77° NW 02:35:27 10° NE
Cosmos 1300 2.5 02:25:19 10° NNW 02:29:09 76° W 02:32:58 10° S
Cosmos 1833 Rocket 3.1 02:25:04 10° SSW 02:30:39 66° ESE 02:36:17 10° NE
In-Cosmos 22 4.3 02:27:41 15° SW 02:31:58 49° WNW 02:37:18 10° N
GP-B 3.9 02:33:18 28° W 02:33:37 29° W 02:37:31 10° NNW
PSLV R/B 3.9 02:29:57 10° SSE 02:34:10 86° WSW 02:38:26 10° NNW
IDEFIX/ARIANE 42P 3.7 02:30:34 10° N 02:34:43 24° NW 02:35:46 23° WNW
Lacrosse 4 Rocket 1.3 02:31:40 17° SW 02:34:44 84° SE 02:38:50 10° NE
Meteor 1-24 Rocket 4.2 02:30:03 10° S 02:35:39 68° E 02:41:30 10° NNE
Abrixas rocket 4.1 02:35:41 15° SSW 02:35:50 15° SSW 02:37:33 10° SSE
Cosmos 2369 4.0 02:30:59 12° NW 02:35:52 44° WSW 02:41:11 10° S
USA 234 3.3 02:29:56 10° E 02:36:29 82° N 02:41:15 20° W
ISS -1.1 02:35:05 10° S 02:37:11 16° SSE 02:39:19 10° ESE
Meteor 2-10 Rocket 4.0 02:32:46 10° N 02:37:45 59° ENE 02:42:43 10° SSE
ATLAS 3B R/B 3.6 02:32:34 10° SSW 02:38:46 46° SE 02:45:06 10° NE
Cosmos 1025 Rocket 3.8 02:37:27 26° WSW 02:38:50 32° WNW 02:42:50 10° N
Cosmos 1484 Rocket 2.6 02:35:02 10° NNE 02:38:57 77° WNW 02:42:47 10° SSW
SAR-Lupe-1 4.2 02:35:53 10° S 02:39:21 49° WSW 02:42:52 10° NNW
Cosmos 1269 Rocket 4.0 02:35:07 11° SW 02:40:16 65° WNW 02:45:36 10° NNE
Cosmos 2228 3.2 02:36:35 10° NNW 02:40:48 50° W 02:45:02 10° S
Cosmos 1689 Rocket 1.9 02:38:22 10° S 02:41:17 62° WSW 02:44:12 10° NNW
Cosmos 1606 Rocket 3.7 02:38:06 10° NNW 02:42:27 52° W 02:46:47 10° S
USA 290 4.1 02:39:32 10° S 02:42:29 33° ESE 02:45:28 10° NE
Cosmos 1674 3.2 02:41:37 21° SW 02:43:37 37° WNW 02:47:12 10° N
METEOR-M 4.1 02:38:57 10° NNE 02:44:21 88° ESE 02:49:42 10° SSW
CZ-4B R/B 3.6 02:41:12 10° NNE 02:45:05 57° ESE 02:49:09 10° S
Cosmos 2082 Rocket 2.9 02:43:36 10° SSW 02:49:03 55° ESE 02:54:33 10° NE
NOSS 5 (C) 4.3 02:48:04 18° SW 02:50:41 85° NW 02:53:46 10° NE
Cosmos 2084 Rocket 4.5 02:48:35 15° NW 02:51:47 40° NNE 02:56:00 10° E
SL-16 R/B 2.5 02:46:19 10° NNW 02:52:01 70° NE 02:57:41 10° SE
Cosmos 1626 2.1 02:49:19 10° SSW 02:52:58 59° WNW 02:56:39 10° N
COSMO-SKYMED 1 2.7 02:50:13 10° S 02:54:28 54° W 02:58:46 10° NNW
COSMOS 2428 4.4 02:50:41 10° NNW 02:55:33 27° NNE 03:00:23 10° E
ADEOS Rocket 3.8 02:51:50 10° SW 02:55:55 21° W 03:00:07 10° NW
Cosmos 2333 Rocket 3.8 02:52:31 10° NNW 02:57:31 30° NNE 03:02:28 10° E
Meteor 2-5 Rocket 3.7 02:53:00 10° SSW 02:58:43 73° WNW 03:04:36 10° NNE
Meteor 2-8 Rocket 4.4 02:53:39 10° NNW 02:59:51 80° W 03:06:01 10° S
Cosmos 1553 Rocket 4.0 02:53:48 10° N 03:00:01 85° E 03:06:07 10° SSE
Meteor 1-31 Rocket 2.8 02:59:01 10° N 03:02:56 61° WNW 03:06:49 10° SSW
Cosmos 2344 3.8 02:56:53 13° WSW 03:03:45 69° NNW 03:12:48 10° ENE
Lacrosse 5 rocket 2.5 03:01:19 10° SSW 03:04:44 37° SE 03:08:19 10° ENE
COSMOS 2406 3.2 03:01:48 10° SW 03:07:27 67° NW 03:13:08 10° NNE
Cosmos 1697 Rocket 3.7 03:04:00 10° NW 03:08:30 25° WSW 03:12:59 10° SSW
Cosmos 2237 Rocket 4.1 03:04:49 10° NNW 03:09:02 21° NNE 03:13:17 10° ENE
Meteor PRIRODA 3.6 03:05:24 10° NNE 03:09:04 87° ESE 03:12:44 10° SSW
deb Chang Zheng 4 3.7 03:07:59 10° N 03:12:06 49° WNW 03:16:13 10° SW
Cosmos 2058 Rocket 3.3 03:07:49 10° NNW 03:12:12 51° W 03:16:33 10° S
Okean 1-7 Rocket 3.7 03:08:01 10° S 03:12:34 85° ESE 03:17:07 10° NNE
CZ-4B R/B 4.1 03:08:48 10° N 03:13:01 52° WNW 03:17:03 10° SW
CREW DRAGON DEMO-1 DEB 4.3 03:11:10 14° WSW 03:13:03 25° SSW 03:15:36 10° SE
deb Kosmos-1763 3.9 03:11:59 10° SW 03:15:35 71° WNW 03:19:10 10° NNE
Cosmos 2026 Rocket 4.0 03:12:13 10° SSW 03:18:37 78° WNW 03:25:02 10° N
Cosmos 1455 2.3 03:14:43 10° NNW 03:18:37 85° E 03:22:30 10° SSE
ARGOS Delta rocket 4.2 03:14:00 10° N 03:19:14 60° WNW 03:24:36 10° SSW
Cosmos 2360 Rocket 2.8 03:13:49 10° NNW 03:19:24 57° NE 03:24:56 10° SE
FENGYUN 3A 3.9 03:15:54 10° N 03:21:06 47° WNW 03:26:17 10° SW
Cosmos 2195 Rocket 4.5 03:16:59 10° SSW 03:23:08 65° WNW 03:29:17 10° N
ASTRO F (AKARI) 4.4 03:22:18 10° NNE 03:25:56 72° WNW 03:29:23 10° SSW
NOSS 3-2 (C) 3.7 03:22:23 10° WSW 03:28:27 64° NNW 03:35:33 10° NE
Cosmos 1892 Rocket 3.7 03:25:27 10° SSW 03:29:43 53° WNW 03:34:02 10° N
CZ-4B R/B 3.4 03:28:49 10° WSW 03:29:49 11° W 03:30:16 11° W
Cosmos 1400 Rocket 3.8 03:27:03 10° NW 03:30:19 25° W 03:33:33 10° SW
Cosmos 1980 Rocket 3.0 03:25:41 10° NW 03:30:27 29° WSW 03:35:11 10° SSW
H-2A R/B 3.1 03:27:27 10° NNE 03:31:55 65° ESE 03:36:13 10° S
SL-16 R/B 4.1 03:29:53 10° NNW 03:33:53 19° N 03:37:52 10° NE
Meteor 2-15 4.4 03:28:21 10° NNW 03:34:25 68° W 03:40:26 10° S
YAOGAN 6 3.2 03:36:18 10° NNE 03:40:01 63° ESE 03:43:40 10° S
Cosmos 2251 Rocket 3.6 03:35:14 10° SW 03:40:35 68° WNW 03:45:57 10° NNE
SJ-12 4.4 03:37:34 10° N 03:41:28 40° WNW 03:45:19 10° SW
CENTAUR R/B 3.0 03:36:57 10° WSW 03:43:26 61° NNW 03:51:11 10° ENE
MOS 1 Rocket 3.2 03:39:48 10° S 03:44:01 57° W 03:48:17 10° NNW
Okean O Rocket 2.8 03:40:11 10° NNE 03:44:25 48° E 03:48:38 10° S
CZ-2C R/B 3.0 03:40:12 10° SSE 03:45:48 79° ENE 03:51:28 10° NNW
Cosmos 2219 Rocket 3.2 03:41:27 10° NNW 03:46:53 43° NE 03:52:14 10° ESE
